Overview Statistics Trail Chart Weather Telemetry Raw packets
 

This is the latest recevied weather packets stored in our database for station/object PE1RXF-13. If no packets are shown the sender has not sent any weather packets the latest 10 day(s).

<< 22 23 24 25 26 27 28 >>
Time Temp. Humidity Pressure Rain* Wind** Luminosity Snow
1788034697 17.22° C 99% 1005.5 hPa 0 mm - 0 W/m² -
1788033594 17.22° C 99% 1005.7 hPa 0 mm - 0 W/m² -
1788032498 17.22° C 99% 1006 hPa 0 mm - 0 W/m² -
1788031388 17.22° C 99% 1006.2 hPa 0 mm - 0 W/m² -
1788030285 17.22° C 99% 1006.3 hPa 0 mm - 0 W/m² -
1788029182 17.22° C 99% 1006.5 hPa 0.25 mm - 0 W/m² -
1788028079 17.22° C 99% 1006.5 hPa 0.25 mm - 0 W/m² -
1788026976 17.78° C 99% 1006.7 hPa 0.25 mm - 2 W/m² -
1788025872 17.78° C 99% 1006.8 hPa 0.25 mm - 10 W/m² -
1788024770 17.78° C 99% 1007 hPa 0.25 mm - 16 W/m² -
1788023667 18.33° C 99% 1007.2 hPa 0.25 mm - 15 W/m² -
1788022564 18.89° C 99% 1007.5 hPa 0.25 mm - 12 W/m² -
1788021462 19.44° C 99% 1007.4 hPa 0.25 mm - 15 W/m² -
1788020359 20° C 99% 1007.4 hPa 0.25 mm - 26 W/m² -
1788019255 19.44° C 99% 1007.6 hPa 0.25 mm - 17 W/m² -
1788018152 20° C 99% 1007.6 hPa 0 mm - 33 W/m² -
1788017055 22.78° C 77% 1007.5 hPa 0 mm - 19 W/m² -
1788015946 22.78° C 76% 1007.6 hPa 0 mm - 134 W/m² -
1788014843 22.78° C 74% 1007.7 hPa 0 mm - 58 W/m² -
1788013740 22.22° C 84% 1007.8 hPa 0 mm - 70 W/m² -
1788012637 22.22° C 84% 1007.8 hPa 0 mm - 58 W/m² -
1788011534 21.67° C 81% 1008 hPa 0 mm - 71 W/m² -
1788010431 22.78° C 73% 1008 hPa 0 mm - 39 W/m² -
1788009327 23.33° C 81% 1007.9 hPa 0 mm - 77 W/m² -
1788008225 23.89° C 86% 1008 hPa 0 mm - 38 W/m² -

* Rain latest hour (hover to see other rain measurements)
** Current wind speed in m/s (hover to see current wind gust speed)